Regional Weather Roundup
Issued by NWS

Home | Current Version | Previous Version | Text Only | Print | Product List | Glossary On
Versions: 1 2 3 4 5 6 7 8 9 10 11 12 13 14 15 16 17 18 19 20 21 22 23 24 25 26 27 28 29 30 31 32 33 34 35 36 37 38 39 40 41 42 43 44 45 46 47 48 49 50
000
ASUS43 KIND 280809
RWRIN

WEATHER ROUNDUP FOR INDIANA
NATIONAL WEATHER SERVICE INDIANAPOLIS IN
400 AM EDT TUE MAR 28 2017

NOTE: "FAIR" INDICATES FEW OR NO CLOUDS BELOW 12,000 FEET WITH NO
SIGNIFICANT WEATHER AND/OR OBSTRUCTIONS TO VISIBILITY.

* - STATION DOES NOT REPORT WEATHER SUCH AS PRECIPITATION OR FOG.

+ - STATION NOT QUALITY CONTROLLED BY THE NATIONAL WEATHER SERVICE.
    USE DATA WITH CAUTION...ESPECIALLY DEWPOINT AND RELATIVE
    HUMIDITY OBSERVATIONS.

INZ001>003-010>013-019-020-280900-
NORTHWEST INDIANA

CITY           SKY/WX    TMP DP  RH WIND       PRES   REMARKS
GARY /AIRPORT/ PTCLDY    40  37  89 N10       29.99R
KNOX *+        MOCLDY    37  28  70 N9        29.94S
LA PORTE +     CLOUDY    38  37  93 N12       29.95F
MICHIGAN CITY+ MOCLDY    36  36 100 N5        29.97F
MONTICELLO +   CLOUDY    43  40  90 N14       29.92S
RENSSELAER +   CLOUDY    41  39  93 N9        29.95R
VALPARAISO     CLEAR     39  37  92 N8        29.95F

$$

LMZ046-743>745-280900-
SOUTHERN LAKE MICHIGAN

STATION/POSITION TIME  TEMP    WIND        PRES    WAVE
                       AIR SEA DIR/SP/G            HT
                 (UTC) (F)     (DEG/KT/KT) (MB)    (FT)
BURNS HARBOR     0740   38     350/  9/ 11 1015.2S
MICHIGAN CITY    0740   38     350/ 13/ 14   N/A

$$

INZ004-005-014>016-021>024-280900-
NORTH CENTRAL INDIANA

CITY           SKY/WX    TMP DP  RH WIND       PRES   REMARKS
GOSHEN         CLOUDY    46  41  82 N10       29.92R
LOGANSPORT +   CLOUDY    46  45  93 NW12      29.91S
PERU/GRISSOM   CLOUDY    50  50 100 N12       29.88R
ROCHESTER +    CLOUDY    48  46  93 N8        29.92R
SOUTH BEND     CLEAR     38  36  92 N7        29.95R
WARSAW +       CLOUDY    46  45  93 N7        29.91R

$$

INZ006>009-017-018-025>027-280900-
NORTHEAST INDIANA

CITY           SKY/WX    TMP DP  RH WIND       PRES   REMARKS
ANGOLA *+      MOCLDY    46  37  71 N6        29.89R
AUBURN +       CLOUDY    50  46  87 N5        29.89S
FORT WAYNE     CLOUDY    52  48  86 N9        29.88R
HUNTINGTON +   CLOUDY    50  49  96 N7        29.88S
KENDALLVILLE + CLOUDY    47  46  95 N6        29.90R

$$

INZ028-029-035-036-043>045-051>053-280900-
WEST CENTRAL INDIANA

CITY           SKY/WX    TMP DP  RH WIND       PRES   REMARKS
CRAWFORDSVL +  CLOUDY    48  48 100 N10       29.89S FOG
GREENCASTLE +  CLOUDY    52  52 100 N10       29.88R
LAFAYETTE      CLOUDY    45  44  97 N12       29.91R
TERRE HAUTE    CLOUDY    55  51  86 N9        29.88R

$$

INZ030>032-037>040-046>048-054>057-064-065-280900-
CENTRAL INDIANA

CITY           SKY/WX    TMP DP  RH WIND       PRES   REMARKS
CP ATTERBURY + CLOUDY    55  54  94 N10G17    29.85R
FISHERS *+     CLOUDY    52  52 100 N5        29.87R
FRANKFORT +    CLOUDY    52  51  95 N12       29.91R FOG
GREENWOOD *+   CLOUDY    55  55  97 N7        29.85S
INDIANAPOLIS   CLOUDY    55  53  93 N10       29.85R
-EAGLE CREEK   CLOUDY    55  51  86 N8        29.86R
KOKOMO +       CLOUDY    52  50  93 N12       29.89R FOG
MARION +       CLOUDY    52  50  95 N9        29.88R
MT COMFORT *+  CLOUDY    54  52  94 N12       29.85S
SHELBYVILLE    CLOUDY    56  52  86 N12       29.84R
ZIONSVILLE +   CLOUDY    52  51  95 N8        29.88R FOG

$$

INZ033-034-041-042-049-050-058-059-280900-
EAST CENTRAL INDIANA

CITY           SKY/WX    TMP DP  RH WIND       PRES   REMARKS
MUNCIE         CLOUDY    54  52  93 NE10      29.85S
RICHMOND +     LGT RAIN  54  52  94 NW5       29.84S

$$

INZ060-061-067>069-081>083-085>088-280900-
SOUTHWEST INDIANA

CITY           SKY/WX    TMP DP  RH WIND       PRES   REMARKS
EVANSVILLE     CLOUDY    56  52  86 W3        29.88R
HUNTINGBURG *+ MOCLDY    54  53  97 SW7       29.86S
WASHINGTON +   CLOUDY    56  54  94 MISG      29.86R FOG

$$

INZ062-063-066-070>080-084-089>092-280900-
SOUTH CENTRAL AND SOUTHEAST INDIANA

CITY           SKY/WX    TMP DP  RH WIND       PRES   REMARKS
BEDFORD +      CLOUDY    55  52  88 W3        29.84R FOG
BLOOMINGTON    CLOUDY    56  53  90 N5        29.85R FOG
MADISON *+     CLOUDY    55  54  94 W3        29.85S
NORTH VERNON + CLOUDY   N/A N/A N/A SW5       29.83F
SEYMOUR +      CLOUDY    55  55 100 CALM      29.84R FOG

$$




USA.gov is the U.S. government's official web portal to all federal, state and local government web resources and services.